Time,TemperatureF,DewpointF,PressureIn,WindDirection,WindDirectionDegrees,WindSpeedMPH,WindSpeedGustMPH,Humidity,HourlyPrecipIn,Conditions,Clouds,dailyrainin,SolarRadiationWatts/m^2,SoftwareType,DateUTC
2013-12-16 00:01:00,32.2,25.2,59.40,WNW,282,0.0,3.0,75,0.00,,,0.00,0,Wunderground v.1.15,2013-12-16 05:01:00,
2013-12-16 00:04:00,32.2,25.2,59.40,WNW,282,2.0,3.0,75,0.00,,,0.00,0,Wunderground v.1.15,2013-12-16 05:04:00,
2013-12-16 00:05:00,32.3,25.3,59.40,WNW,302,1.0,3.0,75,0.00,,,0.00,0,Wunderground v.1.15,2013-12-16 05:05:00,
2013-12-16 00:09:00,32.2,25.5,59.40,WNW,300,2.0,2.0,76,0.00,,,0.00,0,Wunderground v.1.15,2013-12-16 05:09:00,
2013-12-16 00:14:00,32.2,25.5,59.40,West,271,1.0,2.0,76,0.00,,,0.00,0,Wunderground v.1.15,2013-12-16 05:14:00,
2013-12-16 00:16:00,32.2,25.5,59.40,SW,218,1.0,2.0,76,0.00,,,0.00,0,Wunderground v.1.15,2013-12-16 05:16:00,
2013-12-16 00:21:00,32.2,25.5,59.39,WSW,255,1.0,1.0,76,0.00,,,0.00,0,Wunderground v.1.15,2013-12-16 05:21:00,
2013-12-16 00:27:00,32.2,25.5,59.40,West,265,1.0,1.0,76,0.00,,,0.00,0,Wunderground v.1.15,2013-12-16 05:27:00,
2013-12-16 00:33:00,32.2,25.5,59.39,West,261,1.0,3.0,76,0.00,,,0.00,0,Wunderground v.1.15,2013-12-16 05:33:00,
2013-12-16 00:38:00,32.2,25.5,59.40,West,262,1.0,3.0,76,0.00,,,0.00,0,Wunderground v.1.15,2013-12-16 05:38:00,
2013-12-16 00:43:00,32.2,25.5,59.39,WSW,256,1.0,3.0,76,0.00,,,0.00,0,Wunderground v.1.15,2013-12-16 05:43:00,
2013-12-16 00:48:00,32.2,25.5,59.40,SW,233,4.0,4.0,76,0.00,,,0.00,0,Wunderground v.1.15,2013-12-16 05:48:00,
2013-12-16 00:53:00,32.3,25.6,59.40,WNW,286,3.0,3.0,76,0.00,,,0.00,0,Wunderground v.1.15,2013-12-16 05:53:00,
2013-12-16 00:59:00,32.3,25.3,59.40,NW,304,2.0,2.0,75,0.00,,,0.00,0,Wunderground v.1.15,2013-12-16 05:59:00,
2013-12-16 01:05:00,32.3,25.3,59.39,WNW,282,1.0,5.0,75,0.00,,,0.00,0,Wunderground v.1.15,2013-12-16 06:05:00,
2013-12-16 01:11:00,32.2,24.8,59.39,West,277,3.0,8.0,74,0.00,,,0.00,0,Wunderground v.1.15,2013-12-16 06:11:00,
2013-12-16 01:16:00,32.2,24.8,59.40,WNW,285,9.0,9.0,74,0.00,,,0.00,0,Wunderground v.1.15,2013-12-16 06:16:00,
2013-12-16 01:22:00,32.2,24.8,59.40,WNW,282,9.0,9.0,74,0.00,,,0.00,0,Wunderground v.1.15,2013-12-16 06:22:00,
2013-12-16 01:28:00,32.2,25.2,59.40,WNW,296,3.0,9.0,75,0.00,,,0.00,0,Wunderground v.1.15,2013-12-16 06:28:00,
2013-12-16 01:35:00,32.1,25.1,59.40,West,278,10.0,10.0,75,0.00,,,0.00,0,Wunderground v.1.15,2013-12-16 06:35:00,
2013-12-16 01:41:00,32.0,25.3,59.40,ESE,105,2.0,2.0,76,0.00,,,0.00,0,Wunderground v.1.15,2013-12-16 06:41:00,
2013-12-16 01:48:00,31.9,25.2,59.40,SSW,204,1.0,8.0,76,0.00,,,0.00,0,Wunderground v.1.15,2013-12-16 06:48:00,
2013-12-16 01:53:00,31.9,25.5,59.40,WNW,282,8.0,8.0,77,0.00,,,0.00,0,Wunderground v.1.15,2013-12-16 06:53:00,
2013-12-16 01:58:00,31.9,25.2,59.40,West,267,3.0,8.0,76,0.00,,,0.00,0,Wunderground v.1.15,2013-12-16 06:58:00,
2013-12-16 02:03:00,31.9,25.5,59.40,West,279,1.0,5.0,77,0.00,,,0.00,0,Wunderground v.1.15,2013-12-16 07:03:00,
2013-12-16 02:08:00,31.9,25.5,59.40,WNW,292,4.0,7.0,77,0.00,,,0.00,0,Wunderground v.1.15,2013-12-16 07:08:00,
2013-12-16 02:13:00,31.9,25.5,59.40,West,270,2.0,9.0,77,0.00,,,0.00,0,Wunderground v.1.15,2013-12-16 07:13:00,
2013-12-16 02:18:00,31.9,25.2,59.40,West,266,1.0,12.0,76,0.00,,,0.00,0,Wunderground v.1.15,2013-12-16 07:18:00,
2013-12-16 02:24:00,32.0,25.6,59.40,South,175,2.0,9.0,77,0.00,,,0.00,0,Wunderground v.1.15,2013-12-16 07:24:00,
2013-12-16 02:29:00,32.0,25.3,59.40,NNW,327,1.0,9.0,76,0.00,,,0.00,0,Wunderground v.1.15,2013-12-16 07:29:00,
2013-12-16 02:34:00,32.0,25.6,59.40,NW,321,3.0,6.0,77,0.00,,,0.00,0,Wunderground v.1.15,2013-12-16 07:34:00,
2013-12-16 02:39:00,32.0,25.3,59.40,West,266,2.0,7.0,76,0.00,,,0.00,0,Wunderground v.1.15,2013-12-16 07:39:00,
2013-12-16 02:44:00,32.0,25.6,59.40,WNW,295,1.0,7.0,77,0.00,,,0.00,0,Wunderground v.1.15,2013-12-16 07:44:00,
2013-12-16 02:50:00,32.1,25.4,59.40,WNW,284,3.0,8.0,76,0.00,,,0.00,0,Wunderground v.1.15,2013-12-16 07:50:00,
2013-12-16 02:55:00,32.1,25.7,59.40,WNW,290,2.0,10.0,77,0.00,,,0.00,0,Wunderground v.1.15,2013-12-16 07:55:00,
2013-12-16 03:01:00,32.1,25.7,59.41,West,281,2.0,5.0,77,0.00,,,0.00,0,Wunderground v.1.15,2013-12-16 08:01:00,
2013-12-16 05:09:00,31.7,27.1,30.12,NNW,342,1.0,1.0,83,0.00,,,0.00,0,Wunderground v.1.15,2013-12-16 10:09:00,
2013-12-16 05:14:00,31.7,27.4,30.12,NNW,342,1.0,2.0,84,0.00,,,0.00,0,Wunderground v.1.15,2013-12-16 10:14:00,
2013-12-16 05:19:00,31.7,27.4,30.12,NNW,342,0.0,1.0,84,0.00,,,0.00,0,Wunderground v.1.15,2013-12-16 10:19:00,
2013-12-16 05:24:00,31.7,27.4,30.12,NNW,342,1.0,1.0,84,0.00,,,0.00,0,Wunderground v.1.15,2013-12-16 10:24:00,
2013-12-16 05:29:00,31.6,27.3,30.11,SSE,151,2.0,2.0,84,0.00,,,0.00,0,Wunderground v.1.15,2013-12-16 10:29:00,
2013-12-16 05:34:00,31.6,27.6,30.12,SSE,151,1.0,3.0,85,0.00,,,0.00,0,Wunderground v.1.15,2013-12-16 10:34:00,
2013-12-16 05:39:00,31.6,27.6,30.12,SSE,151,1.0,1.0,85,0.00,,,0.00,0,Wunderground v.1.15,2013-12-16 10:39:00,
2013-12-16 05:44:00,31.5,27.8,30.11,SSE,151,0.0,4.0,86,0.00,,,0.00,0,Wunderground v.1.15,2013-12-16 10:44:00,
2013-12-16 05:50:00,31.4,28.0,30.12,SSE,151,1.0,1.0,87,0.00,,,0.00,0,Wunderground v.1.15,2013-12-16 10:50:00,
2013-12-16 05:55:00,31.4,28.0,30.11,SSE,151,1.0,2.0,87,0.00,,,0.00,0,Wunderground v.1.15,2013-12-16 10:55:00,
2013-12-16 06:00:00,31.4,28.3,30.11,SSE,151,1.0,1.0,88,0.00,,,0.00,0,Wunderground v.1.15,2013-12-16 11:00:00,
2013-12-16 06:06:00,31.3,28.2,30.12,SSE,151,0.0,2.0,88,0.00,,,0.00,0,Wunderground v.1.15,2013-12-16 11:06:00,
2013-12-16 06:11:00,31.3,28.2,30.12,WSW,255,0.0,1.0,88,0.00,,,0.00,0,Wunderground v.1.15,2013-12-16 11:11:00,
2013-12-16 06:16:00,31.3,28.4,30.12,WSW,255,1.0,2.0,89,0.00,,,0.00,0,Wunderground v.1.15,2013-12-16 11:16:00,
2013-12-16 06:21:00,31.2,28.3,30.12,WSW,255,0.0,1.0,89,0.00,,,0.00,0,Wunderground v.1.15,2013-12-16 11:21:00,
2013-12-16 06:26:00,31.2,28.3,30.12,WSW,255,0.0,1.0,89,0.00,,,0.00,0,Wunderground v.1.15,2013-12-16 11:26:00,
2013-12-16 06:31:00,31.2,28.6,30.12,WSW,255,1.0,1.0,90,0.00,,,0.00,0,Wunderground v.1.15,2013-12-16 11:31:00,
2013-12-16 06:36:00,31.2,28.6,30.12,WSW,255,0.0,1.0,90,0.00,,,0.00,0,Wunderground v.1.15,2013-12-16 11:36:00,
2013-12-16 06:42:00,31.2,28.6,30.12,WSW,255,1.0,1.0,90,0.00,,,0.00,0,Wunderground v.1.15,2013-12-16 11:42:00,
2013-12-16 06:47:00,31.1,28.5,30.12,SSW,212,2.0,2.0,90,0.00,,,0.00,0,Wunderground v.1.15,2013-12-16 11:47:00,
2013-12-16 06:52:00,31.1,28.5,30.12,SSW,211,0.0,1.0,90,0.00,,,0.00,0,Wunderground v.1.15,2013-12-16 11:52:00,
2013-12-16 06:57:00,31.1,28.5,30.12,SSW,211,1.0,2.0,90,0.00,,,0.00,0,Wunderground v.1.15,2013-12-16 11:57:00,
2013-12-16 07:02:00,31.2,28.6,30.12,SSW,212,0.0,1.0,90,0.00,,,0.00,0,Wunderground v.1.15,2013-12-16 12:02:00,
2013-12-16 07:07:00,31.1,28.8,30.12,SSW,211,0.0,1.0,91,0.00,,,0.00,0,Wunderground v.1.15,2013-12-16 12:07:00,
2013-12-16 07:12:00,31.1,28.8,30.11,SSW,211,1.0,2.0,91,0.00,,,0.00,0,Wunderground v.1.15,2013-12-16 12:12:00,
2013-12-16 07:17:00,31.2,28.6,30.11,SSW,212,1.0,2.0,90,0.00,,,0.00,0,Wunderground v.1.15,2013-12-16 12:17:00,
2013-12-16 07:22:00,31.2,28.9,30.11,SSW,211,1.0,2.0,91,0.00,,,0.00,0,Wunderground v.1.15,2013-12-16 12:22:00,
2013-12-16 07:27:00,31.2,28.9,30.12,SSW,212,0.0,2.0,91,0.00,,,0.00,0,Wunderground v.1.15,2013-12-16 12:27:00,
2013-12-16 07:32:00,31.2,28.9,30.11,SSW,211,1.0,3.0,91,0.00,,,0.00,0,Wunderground v.1.15,2013-12-16 12:32:00,
2013-12-16 07:37:00,31.3,28.7,30.11,SSW,208,1.0,3.0,90,0.00,,,0.00,0,Wunderground v.1.15,2013-12-16 12:37:00,
2013-12-16 07:42:00,31.3,29.0,30.11,SSW,208,1.0,2.0,91,0.00,,,0.00,0,Wunderground v.1.15,2013-12-16 12:42:00,
2013-12-16 07:47:00,31.3,29.0,30.11,SSW,205,1.0,3.0,91,0.00,,,0.00,0,Wunderground v.1.15,2013-12-16 12:47:00,
2013-12-16 07:52:00,31.4,29.1,30.11,SSE,158,3.0,3.0,91,0.00,,,0.00,0,Wunderground v.1.15,2013-12-16 12:52:00,
2013-12-16 07:57:00,31.5,28.9,30.11,SSE,158,0.0,3.0,90,0.00,,,0.00,0,Wunderground v.1.15,2013-12-16 12:57:00,
2013-12-16 08:02:00,31.5,28.9,30.11,SSE,158,1.0,3.0,90,0.00,,,0.00,0,Wunderground v.1.15,2013-12-16 13:02:00,
2013-12-16 08:07:00,31.5,28.9,30.11,SSE,158,0.0,3.0,90,0.00,,,0.00,0,Wunderground v.1.15,2013-12-16 13:07:00,
2013-12-16 08:12:00,31.6,28.7,30.11,SSE,158,0.0,1.0,89,0.00,,,0.00,0,Wunderground v.1.15,2013-12-16 13:12:00,
2013-12-16 08:17:00,31.7,28.8,30.11,SSW,207,2.0,3.0,89,0.00,,,0.00,0,Wunderground v.1.15,2013-12-16 13:17:00,
2013-12-16 08:22:00,31.8,28.9,30.11,SW,226,0.0,2.0,89,0.00,,,0.00,0,Wunderground v.1.15,2013-12-16 13:22:00,
2013-12-16 08:27:00,31.8,28.9,30.12,SW,226,0.0,2.0,89,0.00,,,0.00,0,Wunderground v.1.15,2013-12-16 13:27:00,
2013-12-16 08:32:00,31.9,29.0,30.12,SW,226,0.0,0.0,89,0.00,,,0.00,0,Wunderground v.1.15,2013-12-16 13:32:00,
2013-12-16 08:37:00,32.0,29.1,30.12,SW,226,0.0,1.0,89,0.00,,,0.00,0,Wunderground v.1.15,2013-12-16 13:37:00,
2013-12-16 08:42:00,32.2,29.0,30.12,SW,226,0.0,3.0,88,0.00,,,0.00,0,Wunderground v.1.15,2013-12-16 13:42:00,
2013-12-16 08:47:00,32.2,29.0,30.12,SW,225,0.0,3.0,88,0.00,,,0.00,0,Wunderground v.1.15,2013-12-16 13:47:00,
2013-12-16 08:52:00,32.3,29.1,30.12,SW,225,0.0,1.0,88,0.00,,,0.00,0,Wunderground v.1.15,2013-12-16 13:52:00,
2013-12-16 08:57:00,32.3,28.9,30.12,SW,225,0.0,2.0,87,0.00,,,0.00,0,Wunderground v.1.15,2013-12-16 13:57:00,
2013-12-16 09:02:00,32.5,29.1,30.13,SW,232,0.0,1.0,87,0.00,,,0.00,0,Wunderground v.1.15,2013-12-16 14:02:00,
2013-12-16 09:07:00,32.5,29.1,30.13,SW,232,0.0,1.0,87,0.00,,,0.00,0,Wunderground v.1.15,2013-12-16 14:07:00,
2013-12-16 09:12:00,32.7,29.3,30.13,SW,232,1.0,1.0,87,0.00,,,0.00,0,Wunderground v.1.15,2013-12-16 14:12:00,
2013-12-16 09:17:00,32.8,29.4,30.13,SW,233,1.0,2.0,87,0.00,,,0.00,0,Wunderground v.1.15,2013-12-16 14:17:00,
2013-12-16 09:22:00,33.0,29.6,30.13,SW,232,0.0,2.0,87,0.00,,,0.00,0,Wunderground v.1.15,2013-12-16 14:22:00,
2013-12-16 09:27:00,33.1,29.7,30.14,SW,232,0.0,2.0,87,0.00,,,0.00,0,Wunderground v.1.15,2013-12-16 14:27:00,
2013-12-16 09:32:00,33.2,29.5,30.13,SW,232,1.0,1.0,86,0.00,,,0.00,0,Wunderground v.1.15,2013-12-16 14:32:00,
2013-12-16 09:37:00,33.2,29.5,30.14,SW,232,0.0,2.0,86,0.00,,,0.00,0,Wunderground v.1.15,2013-12-16 14:37:00,
2013-12-16 09:42:00,33.3,29.3,30.13,WSW,248,1.0,2.0,85,0.00,,,0.00,0,Wunderground v.1.15,2013-12-16 14:42:00,
2013-12-16 09:47:00,33.5,29.8,30.13,WSW,244,0.0,2.0,86,0.00,,,0.00,0,Wunderground v.1.15,2013-12-16 14:47:00,
2013-12-16 09:52:00,33.6,29.6,30.13,WSW,245,0.0,0.0,85,0.00,,,0.00,0,Wunderground v.1.15,2013-12-16 14:52:00,
2013-12-16 09:57:00,33.7,29.7,30.14,WSW,244,0.0,0.0,85,0.00,,,0.00,0,Wunderground v.1.15,2013-12-16 14:57:00,
2013-12-16 10:02:00,34.0,30.0,30.14,WSW,245,0.0,2.0,85,0.00,,,0.00,0,Wunderground v.1.15,2013-12-16 15:02:00,
2013-12-16 10:07:00,34.1,29.8,30.14,WSW,245,2.0,2.0,84,0.00,,,0.00,0,Wunderground v.1.15,2013-12-16 15:07:00,
2013-12-16 10:12:00,34.2,29.9,30.14,WSW,245,0.0,0.0,84,0.00,,,0.00,0,Wunderground v.1.15,2013-12-16 15:12:00,
2013-12-16 10:17:00,34.4,30.4,30.14,WSW,245,0.0,1.0,85,0.00,,,0.00,0,Wunderground v.1.15,2013-12-16 15:17:00,
2013-12-16 10:22:00,34.6,30.3,30.14,WSW,244,0.0,0.0,84,0.00,,,0.00,0,Wunderground v.1.15,2013-12-16 15:22:00,
2013-12-16 10:27:00,34.8,30.2,30.13,WSW,244,0.0,0.0,83,0.00,,,0.00,0,Wunderground v.1.15,2013-12-16 15:27:00,
2013-12-16 10:32:00,35.0,30.1,30.13,WSW,244,0.0,1.0,82,0.00,,,0.00,0,Wunderground v.1.15,2013-12-16 15:32:00,
2013-12-16 10:37:00,35.2,30.3,30.13,WSW,245,2.0,3.0,82,0.00,,,0.00,0,Wunderground v.1.15,2013-12-16 15:37:00,
2013-12-16 10:43:00,35.3,30.4,30.13,WSW,245,0.0,2.0,82,0.00,,,0.00,0,Wunderground v.1.15,2013-12-16 15:43:00,
2013-12-16 10:48:00,35.5,30.5,30.13,WSW,244,0.0,2.0,82,0.00,,,0.00,0,Wunderground v.1.15,2013-12-16 15:48:00,
2013-12-16 10:53:00,35.7,30.4,30.13,WSW,244,0.0,2.0,81,0.00,,,0.00,0,Wunderground v.1.15,2013-12-16 15:53:00,
2013-12-16 10:58:00,35.9,30.6,30.13,South,188,1.0,3.0,81,0.00,,,0.00,0,Wunderground v.1.15,2013-12-16 15:58:00,
2013-12-16 11:04:00,36.1,30.8,30.13,South,187,1.0,1.0,81,0.00,,,0.00,0,Wunderground v.1.15,2013-12-16 16:04:00,
2013-12-16 11:09:00,36.1,30.2,30.13,South,187,1.0,2.0,79,0.00,,,0.00,0,Wunderground v.1.15,2013-12-16 16:09:00,
2013-12-16 11:14:00,36.3,30.4,30.13,SSW,208,1.0,2.0,79,0.00,,,0.00,0,Wunderground v.1.15,2013-12-16 16:14:00,
2013-12-16 11:19:00,36.5,30.6,30.13,SSE,151,3.0,3.0,79,0.00,,,0.00,0,Wunderground v.1.15,2013-12-16 16:19:00,
2013-12-16 11:24:00,36.7,30.5,30.12,SSE,151,1.0,3.0,78,0.00,,,0.00,0,Wunderground v.1.15,2013-12-16 16:24:00,
2013-12-16 11:29:00,37.0,31.1,30.11,SSE,151,2.0,4.0,79,0.00,,,0.00,0,Wunderground v.1.15,2013-12-16 16:29:00,
2013-12-16 11:34:00,37.1,30.9,30.11,SSE,161,3.0,3.0,78,0.00,,,0.00,0,Wunderground v.1.15,2013-12-16 16:34:00,
2013-12-16 11:39:00,37.5,31.3,30.11,SSE,167,2.0,3.0,78,0.00,,,0.00,0,Wunderground v.1.15,2013-12-16 16:39:00,
2013-12-16 11:44:00,37.8,31.2,30.11,South,173,1.0,5.0,77,0.00,,,0.00,0,Wunderground v.1.15,2013-12-16 16:44:00,
2013-12-16 11:49:00,37.8,30.9,30.10,West,271,2.0,5.0,76,0.00,,,0.00,0,Wunderground v.1.15,2013-12-16 16:49:00,
2013-12-16 11:54:00,37.8,31.2,30.10,South,175,1.0,3.0,77,0.00,,,0.00,0,Wunderground v.1.15,2013-12-16 16:54:00,
2013-12-16 11:59:00,37.9,31.3,30.10,WNW,289,1.0,4.0,77,0.00,,,0.00,0,Wunderground v.1.15,2013-12-16 16:59:00,
2013-12-16 12:04:00,38.2,31.6,30.10,WNW,289,0.0,3.0,77,0.00,,,0.00,0,Wunderground v.1.15,2013-12-16 17:04:00,
2013-12-16 12:09:00,38.3,31.7,30.09,SW,228,0.0,3.0,77,0.00,,,0.00,0,Wunderground v.1.15,2013-12-16 17:09:00,
2013-12-16 12:14:00,38.6,32.0,30.09,SSW,195,1.0,3.0,77,0.00,,,0.00,0,Wunderground v.1.15,2013-12-16 17:14:00,
2013-12-16 12:19:00,38.6,31.7,30.09,South,180,2.0,3.0,76,0.00,,,0.00,0,Wunderground v.1.15,2013-12-16 17:19:00,
2013-12-16 12:24:00,38.5,31.6,30.08,SSE,154,2.0,5.0,76,0.00,,,0.00,0,Wunderground v.1.15,2013-12-16 17:24:00,
2013-12-16 12:29:00,38.5,31.6,30.08,SSE,154,2.0,5.0,76,0.00,,,0.00,0,Wunderground v.1.15,2013-12-16 17:29:00,
2013-12-16 12:34:00,38.5,31.6,30.07,SSE,153,0.0,4.0,76,0.00,,,0.00,0,Wunderground v.1.15,2013-12-16 17:34:00,
2013-12-16 12:39:00,38.5,31.3,30.07,West,273,1.0,1.0,75,0.00,,,0.00,0,Wunderground v.1.15,2013-12-16 17:39:00,
2013-12-16 12:44:00,38.7,31.8,30.07,South,183,2.0,2.0,76,0.00,,,0.00,0,Wunderground v.1.15,2013-12-16 17:44:00,
2013-12-16 12:49:00,39.0,31.4,30.07,WNW,288,1.0,1.0,74,0.00,,,0.00,0,Wunderground v.1.15,2013-12-16 17:49:00,
2013-12-16 12:54:00,39.2,31.9,30.07,SSE,147,4.0,4.0,75,0.00,,,0.00,0,Wunderground v.1.15,2013-12-16 17:54:00,
2013-12-16 12:59:00,39.3,32.4,30.06,SSE,166,1.0,1.0,76,0.00,,,0.00,0,Wunderground v.1.15,2013-12-16 17:59:00,
2013-12-16 13:04:00,39.5,31.9,30.06,SW,217,1.0,3.0,74,0.00,,,0.00,0,Wunderground v.1.15,2013-12-16 18:04:00,
2013-12-16 13:09:00,39.9,32.3,30.06,SSE,155,4.0,4.0,74,0.00,,,0.00,0,Wunderground v.1.15,2013-12-16 18:09:00,
2013-12-16 13:14:00,40.0,31.7,30.06,WNW,286,1.0,6.0,72,0.00,,,0.00,0,Wunderground v.1.15,2013-12-16 18:14:00,
2013-12-16 13:20:00,40.5,32.5,30.05,South,178,0.0,0.0,73,0.00,,,0.00,0,Wunderground v.1.15,2013-12-16 18:20:00,
2013-12-16 13:25:00,41.0,32.7,30.05,South,178,1.0,3.0,72,0.00,,,0.00,0,Wunderground v.1.15,2013-12-16 18:25:00,
2013-12-16 13:30:00,41.3,32.6,30.05,South,172,1.0,2.0,71,0.00,,,0.00,0,Wunderground v.1.15,2013-12-16 18:30:00,
2013-12-16 13:36:00,41.3,33.0,30.05,South,177,2.0,3.0,72,0.00,,,0.00,0,Wunderground v.1.15,2013-12-16 18:36:00,
2013-12-16 13:41:00,41.2,32.5,30.04,SSE,150,1.0,3.0,71,0.00,,,0.00,0,Wunderground v.1.15,2013-12-16 18:41:00,
2013-12-16 13:46:00,41.3,32.6,30.04,SSE,150,1.0,3.0,71,0.00,,,0.00,0,Wunderground v.1.15,2013-12-16 18:46:00,
2013-12-16 13:51:00,41.3,32.6,30.04,SE,130,1.0,3.0,71,0.00,,,0.00,0,Wunderground v.1.15,2013-12-16 18:51:00,
2013-12-16 13:56:00,41.1,32.4,30.05,SE,144,1.0,4.0,71,0.00,,,0.00,0,Wunderground v.1.15,2013-12-16 18:56:00,
2013-12-16 14:01:00,40.9,32.2,30.05,South,175,1.0,3.0,71,0.00,,,0.00,0,Wunderground v.1.15,2013-12-16 19:01:00,
2013-12-16 14:06:00,40.6,31.6,30.05,West,281,2.0,6.0,70,0.00,,,0.00,0,Wunderground v.1.15,2013-12-16 19:06:00,
2013-12-16 14:12:00,40.4,32.1,30.04,South,182,0.0,2.0,72,0.00,,,0.00,0,Wunderground v.1.15,2013-12-16 19:12:00,
2013-12-16 14:17:00,40.4,32.1,30.04,SSW,194,0.0,3.0,72,0.00,,,0.00,0,Wunderground v.1.15,2013-12-16 19:17:00,
2013-12-16 14:22:00,40.4,32.1,30.04,South,175,2.0,4.0,72,0.00,,,0.00,0,Wunderground v.1.15,2013-12-16 19:22:00,
2013-12-16 14:27:00,40.4,32.1,30.04,South,172,1.0,4.0,72,0.00,,,0.00,0,Wunderground v.1.15,2013-12-16 19:27:00,
2013-12-16 14:32:00,40.4,32.4,30.04,South,172,1.0,2.0,73,0.00,,,0.00,0,Wunderground v.1.15,2013-12-16 19:32:00,
2013-12-16 14:37:00,40.5,32.5,30.04,South,172,2.0,2.0,73,0.00,,,0.00,0,Wunderground v.1.15,2013-12-16 19:37:00,
2013-12-16 14:42:00,40.6,32.3,30.04,South,173,3.0,3.0,72,0.00,,,0.00,0,Wunderground v.1.15,2013-12-16 19:42:00,
2013-12-16 14:47:00,40.8,32.1,30.04,South,173,1.0,3.0,71,0.00,,,0.00,0,Wunderground v.1.15,2013-12-16 19:47:00,
2013-12-16 14:52:00,40.8,32.1,30.04,South,173,1.0,2.0,71,0.00,,,0.00,0,Wunderground v.1.15,2013-12-16 19:52:00,
2013-12-16 14:57:00,41.0,32.3,30.03,South,173,2.0,3.0,71,0.00,,,0.00,0,Wunderground v.1.15,2013-12-16 19:57:00,
2013-12-16 15:03:00,40.9,32.2,30.03,South,172,1.0,2.0,71,0.00,,,0.00,0,Wunderground v.1.15,2013-12-16 20:03:00,
2013-12-16 15:08:00,40.9,32.2,30.03,South,173,2.0,3.0,71,0.00,,,0.00,0,Wunderground v.1.15,2013-12-16 20:08:00,
2013-12-16 15:13:00,40.9,31.9,30.03,South,173,2.0,3.0,70,0.00,,,0.00,0,Wunderground v.1.15,2013-12-16 20:13:00,
2013-12-16 15:19:00,40.8,32.1,30.03,South,173,1.0,3.0,71,0.00,,,0.00,0,Wunderground v.1.15,2013-12-16 20:19:00,
2013-12-16 15:24:00,40.7,32.0,30.02,South,173,1.0,3.0,71,0.00,,,0.00,0,Wunderground v.1.15,2013-12-16 20:24:00,
2013-12-16 15:29:00,40.7,32.0,30.03,South,172,0.0,0.0,71,0.00,,,0.00,0,Wunderground v.1.15,2013-12-16 20:29:00,
2013-12-16 15:35:00,40.6,31.9,30.02,South,173,1.0,3.0,71,0.00,,,0.00,0,Wunderground v.1.15,2013-12-16 20:35:00,
2013-12-16 15:40:00,40.5,31.8,30.03,South,173,1.0,1.0,71,0.00,,,0.00,0,Wunderground v.1.15,2013-12-16 20:40:00,
2013-12-16 15:45:00,40.4,32.1,30.03,South,172,0.0,3.0,72,0.00,,,0.00,0,Wunderground v.1.15,2013-12-16 20:45:00,
2013-12-16 15:50:00,40.2,31.5,30.03,South,172,0.0,1.0,71,0.00,,,0.00,0,Wunderground v.1.15,2013-12-16 20:50:00,
2013-12-16 15:55:00,40.1,31.4,30.03,South,173,1.0,1.0,71,0.00,,,0.00,0,Wunderground v.1.15,2013-12-16 20:55:00,
2013-12-16 16:00:00,39.8,31.5,30.03,South,173,0.0,0.0,72,0.00,,,0.00,0,Wunderground v.1.15,2013-12-16 21:00:00,
2013-12-16 16:05:00,39.7,31.4,30.03,South,172,0.0,1.0,72,0.00,,,0.00,0,Wunderground v.1.15,2013-12-16 21:05:00,
2013-12-16 16:10:00,39.5,31.2,30.03,South,173,0.0,0.0,72,0.00,,,0.00,0,Wunderground v.1.15,2013-12-16 21:10:00,
2013-12-16 16:15:00,39.4,31.1,30.04,South,172,0.0,0.0,72,0.00,,,0.00,0,Wunderground v.1.15,2013-12-16 21:15:00,
2013-12-16 16:20:00,39.3,31.0,30.03,South,173,0.0,0.0,72,0.00,,,0.00,0,Wunderground v.1.15,2013-12-16 21:20:00,
2013-12-16 16:25:00,39.3,31.4,30.03,South,173,0.0,1.0,73,0.00,,,0.00,0,Wunderground v.1.15,2013-12-16 21:25:00,
2013-12-16 16:31:00,39.2,31.3,30.04,South,173,0.0,0.0,73,0.00,,,0.00,0,Wunderground v.1.15,2013-12-16 21:31:00,
2013-12-16 16:36:00,39.2,31.6,30.03,South,173,0.0,0.0,74,0.00,,,0.00,0,Wunderground v.1.15,2013-12-16 21:36:00,
2013-12-16 16:41:00,39.2,31.9,30.03,South,173,0.0,0.0,75,0.00,,,0.00,0,Wunderground v.1.15,2013-12-16 21:41:00,
2013-12-16 16:46:00,39.1,31.5,30.03,South,172,0.0,1.0,74,0.00,,,0.00,0,Wunderground v.1.15,2013-12-16 21:46:00,
2013-12-16 16:51:00,39.0,31.4,30.03,South,172,0.0,0.0,74,0.00,,,0.00,0,Wunderground v.1.15,2013-12-16 21:51:00,
2013-12-16 16:56:00,38.9,31.6,30.03,South,173,0.0,0.0,75,0.00,,,0.00,0,Wunderground v.1.15,2013-12-16 21:56:00,
2013-12-16 17:02:00,38.7,31.8,30.03,South,173,0.0,0.0,76,0.00,,,0.00,0,Wunderground v.1.15,2013-12-16 22:02:00,
2013-12-16 17:07:00,38.6,32.0,30.03,South,172,0.0,1.0,77,0.00,,,0.00,0,Wunderground v.1.15,2013-12-16 22:07:00,
2013-12-16 17:12:00,38.4,32.1,30.04,South,173,0.0,0.0,78,0.00,,,0.00,0,Wunderground v.1.15,2013-12-16 22:12:00,
2013-12-16 17:17:00,38.3,32.4,30.04,South,173,0.0,2.0,79,0.00,,,0.00,0,Wunderground v.1.15,2013-12-16 22:17:00,
2013-12-16 17:22:00,38.1,32.2,30.04,South,173,1.0,2.0,79,0.00,,,0.00,0,Wunderground v.1.15,2013-12-16 22:22:00,
2013-12-16 17:27:00,38.1,32.5,30.04,South,172,0.0,2.0,80,0.00,,,0.00,0,Wunderground v.1.15,2013-12-16 22:27:00,
2013-12-16 17:32:00,38.0,32.4,30.04,South,173,0.0,0.0,80,0.00,,,0.00,0,Wunderground v.1.15,2013-12-16 22:32:00,
2013-12-16 17:37:00,37.9,32.0,30.04,South,173,0.0,1.0,79,0.00,,,0.00,0,Wunderground v.1.15,2013-12-16 22:37:00,
2013-12-16 17:42:00,37.8,32.2,30.04,South,173,0.0,0.0,80,0.00,,,0.00,0,Wunderground v.1.15,2013-12-16 22:42:00,
2013-12-16 17:47:00,37.8,31.9,30.04,South,173,0.0,1.0,79,0.00,,,0.00,0,Wunderground v.1.15,2013-12-16 22:47:00,
2013-12-16 17:52:00,37.8,31.9,30.05,South,173,0.0,1.0,79,0.00,,,0.00,0,Wunderground v.1.15,2013-12-16 22:52:00,
2013-12-16 17:57:00,37.8,31.6,30.05,South,173,0.0,1.0,78,0.00,,,0.00,0,Wunderground v.1.15,2013-12-16 22:57:00,
2013-12-16 18:02:00,37.7,31.8,30.05,South,173,0.0,0.0,79,0.00,,,0.00,0,Wunderground v.1.15,2013-12-16 23:02:00,
2013-12-16 18:07:00,37.6,31.7,30.05,South,172,0.0,1.0,79,0.00,,,0.00,0,Wunderground v.1.15,2013-12-16 23:07:00,
2013-12-16 18:12:00,37.6,31.7,30.05,South,173,0.0,1.0,79,0.00,,,0.00,0,Wunderground v.1.15,2013-12-16 23:12:00,
2013-12-16 18:17:00,37.6,31.7,30.05,South,172,0.0,2.0,79,0.00,,,0.00,0,Wunderground v.1.15,2013-12-16 23:17:00,
2013-12-16 18:22:00,37.7,31.8,30.05,South,173,0.0,1.0,79,0.00,,,0.00,0,Wunderground v.1.15,2013-12-16 23:22:00,
2013-12-16 18:27:00,37.6,31.7,30.05,South,173,0.0,1.0,79,0.00,,,0.00,0,Wunderground v.1.15,2013-12-16 23:27:00,
2013-12-16 18:32:00,37.6,31.7,30.05,South,173,1.0,1.0,79,0.00,,,0.00,0,Wunderground v.1.15,2013-12-16 23:32:00,
2013-12-16 18:37:00,37.6,31.7,30.05,South,173,0.0,1.0,79,0.00,,,0.00,0,Wunderground v.1.15,2013-12-16 23:37:00,
2013-12-16 18:42:00,37.6,31.7,30.05,South,172,0.0,0.0,79,0.00,,,0.00,0,Wunderground v.1.15,2013-12-16 23:42:00,
2013-12-16 18:47:00,37.5,31.9,30.05,South,173,0.0,2.0,80,0.00,,,0.00,0,Wunderground v.1.15,2013-12-16 23:47:00,
2013-12-16 18:52:00,37.5,32.2,30.05,South,172,0.0,1.0,81,0.00,,,0.00,0,Wunderground v.1.15,2013-12-16 23:52:00,
2013-12-16 18:57:00,37.4,32.1,30.04,South,173,1.0,2.0,81,0.00,,,0.00,0,Wunderground v.1.15,2013-12-16 23:57:00,
2013-12-16 19:02:00,37.4,32.1,30.04,South,172,1.0,2.0,81,0.00,,,0.00,0,Wunderground v.1.15,2013-12-17 00:02:00,
2013-12-16 19:07:00,37.4,32.1,30.04,South,173,1.0,2.0,81,0.00,,,0.00,0,Wunderground v.1.15,2013-12-17 00:07:00,
2013-12-16 19:12:00,37.4,31.8,30.05,South,173,0.0,0.0,80,0.00,,,0.00,0,Wunderground v.1.15,2013-12-17 00:12:00,
2013-12-16 19:18:00,37.3,32.0,30.05,South,173,0.0,1.0,81,0.00,,,0.00,0,Wunderground v.1.15,2013-12-17 00:18:00,
2013-12-16 19:23:00,37.1,31.8,30.05,South,173,0.0,1.0,81,0.00,,,0.00,0,Wunderground v.1.15,2013-12-17 00:23:00,
2013-12-16 19:28:00,37.1,31.8,30.05,South,173,0.0,1.0,81,0.00,,,0.00,0,Wunderground v.1.15,2013-12-17 00:28:00,
2013-12-16 19:33:00,37.0,32.0,30.05,South,173,1.0,1.0,82,0.00,,,0.00,0,Wunderground v.1.15,2013-12-17 00:33:00,
2013-12-16 19:38:00,37.0,32.3,30.05,South,173,0.0,1.0,83,0.00,,,0.00,0,Wunderground v.1.15,2013-12-17 00:38:00,
2013-12-16 19:43:00,37.0,32.3,30.05,South,173,0.0,0.0,83,0.00,,,0.00,0,Wunderground v.1.15,2013-12-17 00:43:00,
2013-12-16 19:48:00,36.9,32.2,30.05,South,173,0.0,0.0,83,0.00,,,0.00,0,Wunderground v.1.15,2013-12-17 00:48:00,
2013-12-16 19:53:00,36.9,32.5,30.05,South,172,0.0,0.0,84,0.00,,,0.00,0,Wunderground v.1.15,2013-12-17 00:53:00,
2013-12-16 19:58:00,36.9,32.5,30.06,South,172,0.0,0.0,84,0.00,,,0.00,0,Wunderground v.1.15,2013-12-17 00:58:00,
2013-12-16 20:03:00,36.8,32.4,30.06,South,172,0.0,0.0,84,0.00,,,0.00,0,Wunderground v.1.15,2013-12-17 01:03:00,
2013-12-16 20:08:00,36.7,32.3,30.06,South,173,0.0,0.0,84,0.00,,,0.00,0,Wunderground v.1.15,2013-12-17 01:08:00,
2013-12-16 20:13:00,36.7,32.3,30.05,South,173,0.0,1.0,84,0.00,,,0.00,0,Wunderground v.1.15,2013-12-17 01:13:00,
2013-12-16 20:18:00,36.6,32.2,30.05,South,173,0.0,1.0,84,0.00,,,0.00,0,Wunderground v.1.15,2013-12-17 01:18:00,
2013-12-16 20:23:00,36.5,32.1,30.05,South,173,0.0,0.0,84,0.00,,,0.00,0,Wunderground v.1.15,2013-12-17 01:23:00,
2013-12-16 20:25:00,36.6,32.2,30.05,South,172,0.0,0.0,84,0.00,,,0.00,0,Wunderground v.1.15,2013-12-17 01:25:00,
2013-12-16 20:30:00,36.5,32.4,30.05,South,172,0.0,0.0,85,0.00,,,0.00,0,Wunderground v.1.15,2013-12-17 01:30:00,
2013-12-16 20:35:00,36.4,32.3,30.05,South,173,0.0,0.0,85,0.00,,,0.00,0,Wunderground v.1.15,2013-12-17 01:35:00,
2013-12-16 20:40:00,36.2,32.1,30.05,South,173,0.0,0.0,85,0.00,,,0.00,0,Wunderground v.1.15,2013-12-17 01:40:00,
2013-12-16 20:45:00,36.1,32.0,30.05,South,172,0.0,0.0,85,0.00,,,0.00,0,Wunderground v.1.15,2013-12-17 01:45:00,
2013-12-16 20:51:00,35.8,32.0,30.05,South,173,0.0,0.0,86,0.00,,,0.00,0,Wunderground v.1.15,2013-12-17 01:51:00,
2013-12-16 20:56:00,35.7,31.9,30.05,South,172,0.0,0.0,86,0.00,,,0.00,0,Wunderground v.1.15,2013-12-17 01:56:00,
2013-12-16 21:01:00,35.6,31.8,30.05,South,172,0.0,0.0,86,0.00,,,0.00,0,Wunderground v.1.15,2013-12-17 02:01:00,
2013-12-16 21:06:00,35.5,32.0,30.04,South,173,0.0,0.0,87,0.00,,,0.00,0,Wunderground v.1.15,2013-12-17 02:06:00,
2013-12-16 21:11:00,35.4,31.9,30.04,South,172,0.0,0.0,87,0.00,,,0.00,0,Wunderground v.1.15,2013-12-17 02:11:00,
2013-12-16 21:16:00,35.1,31.6,30.04,South,173,0.0,0.0,87,0.00,,,0.00,0,Wunderground v.1.15,2013-12-17 02:16:00,
2013-12-16 21:21:00,34.8,31.6,30.04,South,172,0.0,0.0,88,0.00,,,0.00,0,Wunderground v.1.15,2013-12-17 02:21:00,
2013-12-16 21:26:00,34.5,31.3,30.04,South,172,0.0,0.0,88,0.00,,,0.00,0,Wunderground v.1.15,2013-12-17 02:26:00,
2013-12-16 21:32:00,34.1,31.2,30.04,South,172,0.0,1.0,89,0.00,,,0.00,0,Wunderground v.1.15,2013-12-17 02:32:00,
2013-12-16 21:37:00,33.8,31.2,30.04,South,173,0.0,1.0,90,0.00,,,0.00,0,Wunderground v.1.15,2013-12-17 02:37:00,
2013-12-16 21:42:00,33.5,30.9,30.04,South,172,0.0,1.0,90,0.00,,,0.00,0,Wunderground v.1.15,2013-12-17 02:42:00,
2013-12-16 21:47:00,33.2,30.9,30.04,South,172,0.0,1.0,91,0.00,,,0.00,0,Wunderground v.1.15,2013-12-17 02:47:00,
2013-12-16 21:52:00,32.9,30.6,30.03,South,172,0.0,1.0,91,0.00,,,0.00,0,Wunderground v.1.15,2013-12-17 02:52:00,
2013-12-16 21:57:00,32.6,30.3,30.04,South,173,0.0,1.0,91,0.00,,,0.00,0,Wunderground v.1.15,2013-12-17 02:57:00,
2013-12-16 22:02:00,32.4,30.1,30.03,South,172,0.0,0.0,91,0.00,,,0.00,0,Wunderground v.1.15,2013-12-17 03:02:00,
2013-12-16 22:07:00,32.1,30.0,30.04,South,172,0.0,1.0,92,0.00,,,0.00,0,Wunderground v.1.15,2013-12-17 03:07:00,
2013-12-16 22:13:00,32.0,29.9,30.04,South,172,0.0,0.0,92,0.00,,,0.00,0,Wunderground v.1.15,2013-12-17 03:13:00,
2013-12-16 22:18:00,31.8,29.7,30.03,South,172,0.0,1.0,92,0.00,,,0.00,0,Wunderground v.1.15,2013-12-17 03:18:00,
2013-12-16 22:23:00,31.6,29.5,30.03,South,173,0.0,1.0,92,0.00,,,0.00,0,Wunderground v.1.15,2013-12-17 03:23:00,
2013-12-16 22:28:00,31.4,29.6,30.03,South,172,0.0,1.0,93,0.00,,,0.00,0,Wunderground v.1.15,2013-12-17 03:28:00,
2013-12-16 22:33:00,31.2,29.4,30.03,South,173,0.0,0.0,93,0.00,,,0.00,0,Wunderground v.1.15,2013-12-17 03:33:00,
2013-12-16 22:38:00,31.1,29.3,30.03,South,173,0.0,0.0,93,0.00,,,0.00,0,Wunderground v.1.15,2013-12-17 03:38:00,